When you browse on this site, cookies collect data to enhance your experience and personalize the content and advertising you see.
Visit our Privacy Policy to learn more. By continuing to use the site, you agree to this use of cookies and data.

Hourly Weather Tulsa

Today, 11 August, Tuesday

Time Temperature Precipitation Wind Pressure Humidity
00:00 +29°C° 0 mm 4 mps 741 mmHg 73%
01:00 +28°C° 0.6 mm 3 mps 741 mmHg 75%
02:00 +28°C° 0.6 mm 3 mps 741 mmHg 78%
03:00 +27°C° 0.6 mm 2 mps 740 mmHg 81%
04:00 +27°C° 1.1 mm 2 mps 741 mmHg 82%
05:00 +26°C° 1.1 mm 2 mps 741 mmHg 83%
06:00 +26°C° 1.1 mm 2 mps 741 mmHg 84%
07:00 +27°C° 0.5 mm 2 mps 741 mmHg 82%
08:00 +27°C° 0.5 mm 2 mps 742 mmHg 79%
09:00 +28°C° 0.5 mm 2 mps 742 mmHg 77%
10:00 +28°C° 0.6 mm 3 mps 742 mmHg 78%
11:00 +28°C° 0.6 mm 4 mps 742 mmHg 79%
12:00 +28°C° 0.6 mm 4 mps 742 mmHg 81%
13:00 +28°C° 0.3 mm 5 mps 741 mmHg 77%
14:00 +29°C° 0.3 mm 5 mps 741 mmHg 74%
15:00 +29°C° 0.3 mm 6 mps 741 mmHg 70%
16:00 +29°C° 0.1 mm 5 mps 741 mmHg 71%
17:00 +28°C° 0.1 mm 5 mps 741 mmHg 73%
18:00 +27°C° 0.1 mm 5 mps 741 mmHg 74%
19:00 +26°C° 0 mm 4 mps 741 mmHg 78%
20:00 +25°C° 0 mm 4 mps 741 mmHg 82%
21:00 +22°C° 0 mm 3 mps 741 mmHg 86%
22:00 +22°C° 0 mm 3 mps 741 mmHg 88%
23:00 +21°C° 0 mm 2 mps 741 mmHg 90%

Tomorrow, 12 August, Wednesday

Time Temperature Precipitation Wind Pressure Humidity
00:00 +21°C° 0 mm 2 mps 741 mmHg 92%
01:00 +21°C° 0 mm 2 mps 741 mmHg 93%
02:00 +21°C° 0 mm 2 mps 741 mmHg 93%
03:00 +21°C° 0 mm 2 mps 741 mmHg 93%
04:00 +21°C° 0 mm 2 mps 741 mmHg 93%
05:00 +21°C° 0 mm 2 mps 741 mmHg 93%
06:00 +21°C° 0 mm 3 mps 742 mmHg 93%
07:00 +24°C° 0 mm 3 mps 742 mmHg 86%
08:00 +26°C° 0 mm 3 mps 742 mmHg 79%
09:00 +28°C° 0 mm 3 mps 742 mmHg 72%
10:00 +30°C° 0 mm 3 mps 742 mmHg 67%
11:00 +33°C° 0 mm 4 mps 742 mmHg 62%
12:00 +35°C° 0 mm 4 mps 742 mmHg 58%
13:00 +36°C° 0 mm 4 mps 741 mmHg 56%
14:00 +36°C° 0 mm 4 mps 741 mmHg 53%
15:00 +37°C° 0 mm 4 mps 741 mmHg 51%
16:00 +37°C° 0 mm 4 mps 741 mmHg 55%
17:00 +36°C° 0 mm 4 mps 740 mmHg 58%
18:00 +35°C° 0 mm 3 mps 740 mmHg 61%
19:00 +34°C° 0 mm 3 mps 740 mmHg 64%
20:00 +32°C° 0 mm 4 mps 741 mmHg 66%
21:00 +29°C° 0 mm 4 mps 741 mmHg 69%
22:00 +29°C° 0 mm 4 mps 741 mmHg 69%
23:00 +28°C° 0 mm 4 mps 741 mmHg 70%

Day after tomorrow, 13 August, Thursday

Time Temperature Precipitation Wind Pressure Humidity
00:00 +28°C° 0 mm 4 mps 741 mmHg 70%
01:00 +27°C° 0 mm 4 mps 741 mmHg 72%
02:00 +27°C° 0 mm 3 mps 741 mmHg 73%
03:00 +26°C° 0 mm 3 mps 741 mmHg 75%
04:00 +26°C° 0 mm 3 mps 741 mmHg 77%
05:00 +26°C° 0 mm 4 mps 741 mmHg 79%
06:00 +26°C° 0 mm 4 mps 741 mmHg 81%
07:00 +27°C° 0 mm 4 mps 741 mmHg 77%
08:00 +29°C° 0 mm 5 mps 741 mmHg 73%
09:00 +30°C° 0 mm 5 mps 742 mmHg 69%
10:00 +33°C° 0 mm 5 mps 741 mmHg 63%
11:00 +35°C° 0 mm 6 mps 741 mmHg 57%
12:00 +38°C° 0 mm 6 mps 740 mmHg 51%
13:00 +39°C° 0 mm 6 mps 740 mmHg 48%
14:00 +40°C° 0 mm 6 mps 739 mmHg 45%
15:00 +41°C° 0 mm 7 mps 739 mmHg 42%
16:00 +40°C° 0 mm 6 mps 739 mmHg 45%
17:00 +39°C° 0 mm 5 mps 739 mmHg 48%
18:00 +37°C° 0 mm 5 mps 738 mmHg 51%
19:00 +36°C° 0 mm 5 mps 739 mmHg 54%
20:00 +35°C° 0 mm 6 mps 739 mmHg 57%
21:00 +33°C° 0 mm 7 mps 739 mmHg 60%
22:00 +33°C° 0 mm 7 mps 739 mmHg 58%
23:00 +32°C° 0 mm 6 mps 739 mmHg 57%

14 August, Friday

Time Temperature Precipitation Wind Pressure Humidity
00:00 +32°C° 0 mm 6 mps 739 mmHg 56%
01:00 +30°C° 0.3 mm 6 mps 738 mmHg 61%
02:00 +28°C° 0.3 mm 5 mps 738 mmHg 67%
03:00 +27°C° 0.3 mm 5 mps 738 mmHg 72%
04:00 +27°C° 0.2 mm 5 mps 738 mmHg 73%
05:00 +26°C° 0.2 mm 5 mps 738 mmHg 74%
06:00 +26°C° 0.2 mm 5 mps 738 mmHg 75%
07:00 +28°C° 0 mm 5 mps 738 mmHg 69%
08:00 +30°C° 0 mm 6 mps 738 mmHg 63%
09:00 +33°C° 0 mm 6 mps 739 mmHg 56%
10:00 +35°C° 0 mm 6 mps 738 mmHg 51%
11:00 +38°C° 0 mm 6 mps 738 mmHg 46%
12:00 +39°C° 0 mm 6 mps 738 mmHg 41%
13:00 +41°C° 0 mm 6 mps 737 mmHg 38%
14:00 +42°C° 0 mm 6 mps 737 mmHg 35%
15:00 +44°C° 0 mm 6 mps 736 mmHg 32%
16:00 +42°C° 0 mm 6 mps 736 mmHg 35%
17:00 +41°C° 0 mm 5 mps 736 mmHg 38%
18:00 +40°C° 0 mm 5 mps 736 mmHg 42%
19:00 +39°C° 0 mm 5 mps 736 mmHg 43%
20:00 +36°C° 0 mm 5 mps 737 mmHg 45%
21:00 +35°C° 0 mm 5 mps 737 mmHg 47%
22:00 +33°C° 0.1 mm 4 mps 738 mmHg 50%
23:00 +31°C° 0.1 mm 3 mps 738 mmHg 52%

15 August, Saturday

Time Temperature Precipitation Wind Pressure Humidity
00:00 +29°C° 0.1 mm 2 mps 738 mmHg 55%
01:00 +29°C° 0 mm 2 mps 738 mmHg 58%
02:00 +28°C° 0 mm 2 mps 738 mmHg 61%
03:00 +27°C° 0 mm 1 mps 738 mmHg 65%
04:00 +27°C° 0 mm 1 mps 739 mmHg 66%
05:00 +27°C° 0 mm 1 mps 739 mmHg 67%
06:00 +26°C° 0 mm 1 mps 739 mmHg 67%
07:00 +29°C° 0 mm 1 mps 740 mmHg 60%
08:00 +31°C° 0 mm 1 mps 740 mmHg 53%
09:00 +34°C° 0 mm 2 mps 741 mmHg 46%
10:00 +35°C° 0 mm 1 mps 741 mmHg 42%
11:00 +37°C° 0 mm 1 mps 741 mmHg 38%
12:00 +40°C° 0 mm 1 mps 741 mmHg 33%
13:00 +40°C° 0 mm 1 mps 741 mmHg 32%
14:00 +41°C° 0 mm 2 mps 741 mmHg 31%
15:00 +41°C° 0 mm 2 mps 741 mmHg 30%
16:00 +40°C° 0 mm 2 mps 740 mmHg 34%
17:00 +39°C° 0 mm 2 mps 740 mmHg 37%
18:00 +39°C° 0 mm 2 mps 740 mmHg 41%
19:00 +37°C° 0 mm 2 mps 740 mmHg 45%
20:00 +35°C° 0 mm 2 mps 740 mmHg 48%
21:00 +32°C° 0 mm 2 mps 741 mmHg 51%
22:00 +31°C° 0 mm 2 mps 741 mmHg 53%
23:00 +30°C° 0 mm 1 mps 741 mmHg 55%

16 August, Sunday

Time Temperature Precipitation Wind Pressure Humidity
00:00 +30°C° 0 mm 1 mps 741 mmHg 56%
01:00 +29°C° 0 mm 1 mps 741 mmHg 56%
02:00 +29°C° 0 mm 1 mps 741 mmHg 55%
03:00 +28°C° 0 mm 2 mps 741 mmHg 55%
04:00 +28°C° 0 mm 1 mps 741 mmHg 54%
05:00 +27°C° 0 mm 1 mps 742 mmHg 54%
06:00 +27°C° 0 mm 1 mps 742 mmHg 53%
07:00 +29°C° 0 mm 1 mps 742 mmHg 49%
08:00 +31°C° 0 mm 1 mps 743 mmHg 44%
09:00 +31°C° 0 mm 0 mps 743 mmHg 39%
10:00 +34°C° 0 mm 0 mps 743 mmHg 36%
11:00 +36°C° 0 mm 0 mps 743 mmHg 33%
12:00 +38°C° 0 mm 0 mps 743 mmHg 29%
13:00 +41°C° 0 mm 1 mps 742 mmHg 28%
14:00 +42°C° 0 mm 1 mps 742 mmHg 26%
15:00 +42°C° 0 mm 1 mps 742 mmHg 24%
16:00 +41°C° 0 mm 2 mps 741 mmHg 29%
17:00 +40°C° 0 mm 3 mps 741 mmHg 33%
18:00 +39°C° 0 mm 3 mps 741 mmHg 37%
19:00 +37°C° 0 mm 2 mps 741 mmHg 42%
20:00 +33°C° 0 mm 1 mps 741 mmHg 46%
21:00 +31°C° 0 mm 1 mps 742 mmHg 51%
22:00 +31°C° 0 mm 2 mps 742 mmHg 53%
23:00 +30°C° 0 mm 3 mps 742 mmHg 55%
Show more